This demonstration page uses our WeatherBlox Daily Observations layout. Learn more.

Hourly Observations for January 22, 2020

Temp ( °F °C ) Dew Point ( °F °C ) Humidity (%) Winds ( mph kmh ) Pressure ( in mb ) Visibility ( mi km ) Precip ( " mm )
12:15 am 00:15 Cloudy with Light Wintry Mix 33 0.6 33 0.5 99 99 S 10 17 29.96 1015 7 11.26538 0 0
12:35 am 00:35 Cloudy 33 0.6 33 0.5 99 99 S 10 17 29.95 1014 7 11.26538 0 0
12:55 am 00:55 Cloudy with Light Wintry Mix 33 0.6 33 0.5 99 99 S 9 15 29.94 1014 5 8.0467 0 0
1:15 am 01:15 Cloudy with Light Wintry Mix 33 0.6 33 0.6 100 100 S 9 15 29.93 1013 5 8.0467 0 0
1:35 am 01:35 Cloudy with Light Wintry Mix 33 0.6 33 0.6 100 100 S 7 11 29.93 1013 5 8.0467 0 0
1:55 am 01:55 Cloudy with Light Wintry Mix 33 0.6 33 0.6 100 100 S 7 11 29.92 1013 5 8.0467 0 0
2:15 am 02:15 Cloudy with Light Wintry Mix 33 0.8 33 0.8 100 100 S 8 13 29.92 1013 5 8.0467 0.01 0.254
2:35 am 02:35 Cloudy with Light Rain 33 0.7 33 0.7 100 100 S 7 11 29.92 1013 5 8.0467 0.01 0.254
2:55 am 02:55 Cloudy with Light Drizzle 33 0.7 33 0.7 100 100 S 8 13 29.91 1013 4 6.43736 0.01 0.254
3:15 am 03:15 Cloudy with Light Drizzle 33 0.6 33 0.6 100 100 S 8 13 29.9 1012 4 6.43736 0 0
3:35 am 03:35 Cloudy with Drizzle 33 0.6 33 0.6 100 100 S 8 13 29.88 1012 3 4.82802 0 0
3:55 am 03:55 Cloudy with Light Drizzle 33 0.6 33 0.6 100 100 S 7 11 29.88 1012 3 4.82802 0 0
4:15 am 04:15 Cloudy with Light Drizzle 33 0.6 33 0.6 100 100 S 8 13 29.87 1011 3 4.82802 0 0
4:35 am 04:35 Cloudy with Mist and Fog 33 0.6 33 0.6 100 100 S 8 13 29.87 1011 3 4.82802 0 0
4:55 am 04:55 Cloudy with Mist and Fog 33 0.6 33 0.6 100 100 S 10 17 29.85 1011 2 3.21868 0 0
5:15 am 05:15 Cloudy with Mist and Fog 33 0.6 33 0.6 100 100 S 9 15 29.85 1011 1.5 2.41401 0 0
5:35 am 05:35 Cloudy with Mist and Fog 33 0.6 33 0.6 100 100 S 8 13 29.85 1011 1.25 2.011675 0 0
5:55 am 05:55 Cloudy with Mist and Fog 33 0.6 33 0.6 100 100 S 8 13 29.85 1011 1 1.60934 0 0
6:15 am 06:15 Cloudy with Mist and Fog 33 0.6 33 0.6 100 100 S 8 13 29.86 1011 0.75 1.207005 0 0
6:35 am 06:35 Cloudy with Mist and Fog 33 0.6 33 0.6 100 100 S 10 17 29.86 1011 1 1.60934 0 0
6:55 am 06:55 Cloudy with Mist and Fog 33 0.6 33 0.6 100 100 S 10 17 29.85 1011 1 1.60934 0 0
7:15 am 07:15 Cloudy with Mist and Fog 33 0.6 33 0.6 100 100 S 10 17 29.85 1011 1.25 2.011675 0 0
7:35 am 07:35 Cloudy with Mist and Fog 33 0.6 33 0.6 100 100 S 12 19 29.85 1011 1.25 2.011675 0 0
7:55 am 07:55 Cloudy with Mist and Fog 33 0.5 33 0.5 100 100 S 12 19 29.85 1011 1.25 2.011675 0 0
8:15 am 08:15 Cloudy with Mist and Fog 33 0.5 33 0.5 100 100 S 12 19 29.85 1011 1 1.60934 0 0
8:35 am 08:35 Cloudy with Fog 33 0.5 33 0.5 100 100 S 9 15 29.85 1011 0.5 0.80467 0 0
8:55 am 08:55 Cloudy with Fog 33 0.6 33 0.6 100 100 S 8 13 29.86 1011 0.5 0.80467 0 0
9:15 am 09:15 Cloudy with Fog 33 0.6 33 0.6 100 100 SSW 6 9 29.85 1011 0.5 0.80467 0 0
9:35 am 09:35 Cloudy with Fog 33 0.6 33 0.6 100 100 S 9 15 29.85 1011 0.5 0.80467 0 0
9:55 am 09:55 Cloudy with Fog 33 0.7 33 0.7 100 100 S 8 13 29.85 1011 0.5 0.80467 0 0
10:15 am 10:15 Cloudy with Fog 34 1 34 1 100 100 S 9 15 29.83 1010 0.5 0.80467 0 0
10:35 am 10:35 Cloudy with Fog 34 1.2 34 1.2 100 100 SSW 6 9 29.84 1011 0.5 0.80467 0 0
10:55 am 10:55 Cloudy with Fog 34 1.3 34 1.3 100 100 SSW 8 13 29.84 1011 0.5 0.80467 0 0
11:15 am 11:15 Cloudy with Fog 35 1.5 35 1.5 100 100 SSW 9 15 29.83 1010 0.25 0.402335 0 0
11:35 am 11:35 Cloudy with Fog 35 1.7 35 1.7 100 100 SSW 7 11 29.82 1010 0.25 0.402335 0 0
11:55 am 11:55 Cloudy with Fog 36 2 36 2 100 100 SSW 6 9 29.82 1010 0.25 0.402335 0 0
12:15 pm 12:15 Cloudy with Fog 36 2 36 2 100 100 SSW 5 7 29.81 1009 0.25 0.402335 0 0
12:35 pm 12:35 Cloudy with Fog 37 2.5 37 2.5 100 100 SW 7 11 29.79 1009 0.5 0.80467 0 0
12:55 pm 12:55 Cloudy with Mist and Fog 37 2.5 37 2.5 100 100 SW 5 7 29.79 1009 1 1.60934 0 0
1:15 pm 13:15 Cloudy with Mist and Fog 37 2.8 37 2.8 100 100 WSW 3 6 29.79 1009 2.5 4.02335 0 0
1:35 pm 13:35 Cloudy with Mist and Fog 37 3 37 3 100 100 SW 3 6 29.79 1009 4 6.43736 0 0
1:55 pm 13:55 Cloudy 38 3.5 38 3.5 100 100 Calm 29.77 1008 7 11.26538 0 0
2:15 pm 14:15 Cloudy 38 3.5 38 3.5 100 100 W 3 6 29.77 1008 10 16.0934 0 0
2:35 pm 14:35 Cloudy 39 4 39 4 100 100 WNW 5 7 29.77 1008 10 16.0934 0 0
2:55 pm 14:55 Cloudy 40 4.4 39 3.9 97 97 W 5 7 29.76 1008 10 16.0934 0 0
3:15 pm 15:15 Mostly Cloudy 41 5 38 3.6 91 91 WNW 3 6 29.77 1008 10 16.0934 0 0
3:35 pm 15:35 Partly Cloudy 41 5 38 3.6 91 91 WNW 5 7 29.77 1008 10 16.0934 0 0
3:55 pm 15:55 Partly Cloudy 41 5.2 39 3.9 91 91 NW 3 6 29.78 1008 10 16.0934 0 0
4:15 pm 16:15 Sunny 42 5.5 39 4.1 91 91 Calm 29.77 1008 10 16.0934 0 0
4:35 pm 16:35 Sunny 41 5.2 39 4 92 92 Calm 29.79 1009 10 16.0934 0 0
4:55 pm 16:55 Sunny 41 4.8 38 3.6 92 92 N 3 6 29.79 1009 10 16.0934 0 0
5:15 pm 17:15 Sunny 38 3.5 37 2.9 96 96 N 3 6 29.81 1010 10 16.0934 0 0
5:35 pm 17:35 Sunny 37 2.5 36 2.2 98 98 N 3 6 29.83 1010 7 11.26538 0 0
5:55 pm 17:55 Clear 37 2.5 36 2.2 98 98 N 5 7 29.84 1011 7 11.26538 0 0
6:15 pm 18:15 Clear 36 2 35 1.9 99 99 NNW 6 9 29.86 1011 10 16.0934 0 0
6:35 pm 18:35 Clear 36 2.2 34 1.2 93 93 N 8 13 29.86 1011 10 16.0934 0 0
6:55 pm 18:55 Clear 36 2.2 33 0.5 89 89 NNW 9 15 29.87 1012 10 16.0934 0 0
7:15 pm 19:15 Clear 36 2 32 0.2 88 88 NNW 9 15 29.89 1012 10 16.0934 0 0
7:35 pm 19:35 Mostly Cloudy 36 2 32 0.2 88 88 NNW 9 15 29.9 1012 10 16.0934 0 0
7:55 pm 19:55 Cloudy 36 2 32 0.2 88 88 NW 7 11 29.91 1013 10 16.0934 0 0
8:15 pm 20:15 Cloudy 35 1.8 32 0.2 89 89 WNW 7 11 29.92 1013 10 16.0934 0 0
8:35 pm 20:35 Cloudy 35 1.7 33 0.3 91 91 NW 6 9 29.93 1013 10 16.0934 0 0
8:55 pm 20:55 Cloudy 36 2.2 33 0.3 87 87 NNW 7 11 29.93 1014 10 16.0934 0 0
9:15 pm 21:15 Cloudy 36 2.4 33 0.6 88 88 NW 6 9 29.93 1014 10 16.0934 0 0
9:35 pm 21:35 Cloudy 37 2.5 34 1 90 90 NNW 7 11 29.94 1014 10 16.0934 0 0
9:55 pm 21:55 Cloudy 37 2.6 34 1.2 91 91 NNW 8 13 29.94 1014 10 16.0934 0 0
10:15 pm 22:15 Cloudy 37 2.6 34 1.3 91 91 NNW 9 15 29.94 1014 10 16.0934 0 0
10:35 pm 22:35 Cloudy 38 3.2 35 1.5 89 89 NNW 10 17 29.93 1014 10 16.0934 0 0
10:55 pm 22:55 Cloudy 37 2.9 35 1.4 90 90 NNW 10 17 29.95 1014 10 16.0934 0 0
11:15 pm 23:15 Cloudy 37 2.8 35 1.7 93 93 NW 10 17 29.97 1015 10 16.0934 0 0
11:35 pm 23:35 Cloudy 38 3.1 37 2.5 96 96 NW 12 19 29.97 1015 10 16.0934 0 0
11:55 pm 23:55 Cloudy with Light Drizzle 38 3.1 37 2.7 97 97 NW 13 20 29.97 1015 10 16.0934 0 0

Powered by AerisWeather